| time (UTC) | temp F | wind direction | speed knots | gust knots | rain 1hr in | rain 24hr in | rain mn in | humidity % | barometer mb |
| 20260905150649 | 58 | 263 | 1.7 | 1.7 | 0.00 | 0.00 | 0.00 | 1 | 1019.5 |
| 20260905145625 | 58 | 347 | 3.5 | 4.3 | 0.00 | 0.00 | 0.00 | 1 | 1019.5 |
| 20260905144621 | 57 | 317 | 1.7 | 3.5 | 0.00 | 0.00 | 0.00 | 1 | 1019.4 |
| 20260905143618 | 57 | 348 | 1.7 | 2.6 | 0.00 | 0.00 | 0.00 | 1 | 1019.4 |
| 20260905142634 | 57 | 261 | 1.7 | 3.5 | 0.00 | 0.00 | 0.00 | 1 | 1019.5 |
| 20260905141630 | 56 | 328 | 1.7 | 2.6 | 0.00 | 0.00 | 0.00 | 1 | 1019.2 |
| 20260905140626 | 55 | 340 | 0.9 | 2.6 | 0.00 | 0.00 | 0.00 | 1 | 1019.2 |
| 20260905135622 | 55 | 0.0 | 1.7 | 0.00 | 0.00 | 0.00 | 1 | 1019.1 | |
| 20260905134618 | 55 | 345 | 0.9 | 2.6 | 0.00 | 0.00 | 0.00 | 1 | 1019.0 |
| 20260905133735 | 56 | 93 | 0.0 | 1.7 | 0.00 | 0.00 | 0.00 | 1 | 1018.9 |
| 20260905132651 | 56 | 73 | 1.7 | 2.6 | 0.00 | 0.00 | 0.00 | 1 | 1018.8 |
| 20260905131627 | 56 | 0.0 | 1.7 | 0.00 | 0.00 | 0.00 | 1 | 1018.7 | |
| 20260905130643 | 56 | 0.0 | 1.7 | 0.00 | 0.00 | 0.00 | 1 | 1018.6 | |
| 20260905125619 | 56 | 205 | 2.6 | 4.3 | 0.00 | 0.00 | 0.00 | 1 | 1018.6 |
| 20260905124618 | 55 | 222 | 1.7 | 1.7 | 0.00 | 0.00 | 0.00 | 1 | 1018.4 |
| 20260905123633 | 55 | 266 | 1.7 | 2.6 | 0.00 | 0.00 | 0.00 | 1 | 1018.1 |
| 20260905122628 | 56 | 16 | 1.7 | 1.7 | 0.00 | 0.00 | 0.00 | 1 | 1018.4 |
| 20260905121624 | 55 | 199 | 0.9 | 1.7 | 0.00 | 0.00 | 0.00 | 1 | 1018.3 |
| 20260905120620 | 56 | 316 | 2.6 | 3.5 | 0.00 | 0.00 | 0.00 | 1 | 1018.1 |
| 20260905115616 | 55 | 336 | 2.6 | 3.5 | 0.00 | 0.00 | 0.00 | 1 | 1018.0 |
| 20260905114652 | 56 | 316 | 2.6 | 3.5 | 0.00 | 0.00 | 0.00 | 1 | 1017.8 |
| 20260905113648 | 56 | 338 | 4.3 | 5.2 | 0.00 | 0.00 | 0.00 | 1 | 1017.8 |
| 20260905112624 | 57 | 345 | 2.6 | 4.3 | 0.00 | 0.00 | 0.00 | 1 | 1018.0 |
| 20260905111621 | 57 | 334 | 3.5 | 5.2 | 0.00 | 0.00 | 0.00 | 1 | 1017.8 |
| 20260905110617 | 58 | 338 | 3.5 | 5.2 | 0.00 | 0.00 | 0.00 | 1 | 1017.7 |
| 20260905105633 | 58 | 327 | 5.2 | 6.1 | 0.00 | 0.00 | 0.00 | 1 | 1017.8 |
| 20260905104629 | 58 | 333 | 3.5 | 5.2 | 0.00 | 0.00 | 0.00 | 1 | 1017.8 |
| 20260905103625 | 56 | 342 | 0.0 | 0.9 | 0.00 | 0.00 | 0.00 | 1 | 1017.9 |
| 20260905102621 | 56 | 216 | 1.7 | 1.7 | 0.00 | 0.00 | 0.00 | 1 | 1018.0 |
| 20260905101617 | 56 | 303 | 2.6 | 3.5 | 0.00 | 0.00 | 0.00 | 1 | 1017.8 |
| 20260905100633 | 56 | 325 | 2.6 | 3.5 | 0.00 | 0.00 | 0.00 | 1 | 1017.7 |
| 20260905095630 | 56 | 327 | 3.5 | 4.3 | 0.00 | 0.00 | 0.00 | 1 | 1017.9 |
| 20260905094626 | 56 | 338 | 3.5 | 4.3 | 0.00 | 0.00 | 0.00 | 1 | 1017.8 |
| 20260905093622 | 56 | 330 | 2.6 | 3.5 | 0.00 | 0.00 | 0.00 | 1 | 1017.8 |
| 20260905092618 | 57 | 328 | 3.5 | 4.3 | 0.00 | 0.00 | 0.00 | 1 | 1017.8 |
| 20260905091654 | 57 | 342 | 4.3 | 6.1 | 0.00 | 0.00 | 0.00 | 1 | 1017.8 |
| 20260905090631 | 57 | 346 | 2.6 | 3.5 | 0.00 | 0.00 | 0.00 | 1 | 1017.6 |
| 20260905085626 | 57 | 333 | 2.6 | 3.5 | 0.00 | 0.00 | 0.00 | 1 | 1017.7 |
| 20260905084622 | 57 | 0 | 0.9 | 1.7 | 0.00 | 0.00 | 0.00 | 1 | 1017.4 |
| 20260905083639 | 57 | 0.0 | 0.0 | 0.00 | 0.00 | 0.00 | 1 | 1017.6 | |
| 20260905082715 | 57 | 301 | 1.7 | 2.6 | 0.00 | 0.00 | 0.00 | 1 | 1017.4 |
| 20260905081651 | 57 | 331 | 2.6 | 4.3 | 0.00 | 0.00 | 0.00 | 1 | 1017.2 |
| 20260905080647 | 58 | 346 | 2.6 | 3.5 | 0.00 | 0.00 | 0.00 | 1 | 1017.2 |
| 20260905075623 | 57 | 332 | 4.3 | 6.1 | 0.00 | 0.00 | 0.00 | 1 | 1017.2 |
| 20260905074619 | 57 | 309 | 2.6 | 3.5 | 0.00 | 0.00 | 0.00 | 1 | 1017.2 |
| 20260905073655 | 56 | 344 | 1.7 | 2.6 | 0.00 | 0.00 | 0.00 | 1 | 1016.9 |
| 20260905072631 | 56 | 345 | 3.5 | 5.2 | 0.00 | 0.00 | 0.00 | 1 | 1017.0 |
| 20260905071628 | 57 | 341 | 2.6 | 3.5 | 0.00 | 0.00 | 0.00 | 1 | 1016.9 |
| 20260905070624 | 57 | 327 | 4.3 | 5.2 | 0.00 | 0.00 | 0.00 | 1 | 1017.1 |
| 20260905065620 | 57 | 343 | 4.3 | 5.2 | 0.00 | 0.00 | 0.00 | 1 | 1017.0 |
| 20260905064718 | 57 | 326 | 3.5 | 4.3 | 0.00 | 0.00 | 0.00 | 1 | 1016.8 |
| 20260905063633 | 57 | 343 | 4.3 | 5.2 | 0.00 | 0.00 | 0.00 | 1 | 1016.4 |
| 20260905062629 | 57 | 329 | 5.2 | 6.1 | 0.00 | 0.00 | 0.00 | 1 | 1016.6 |
| 20260905061625 | 57 | 332 | 6.1 | 7.8 | 0.00 | 0.00 | 0.00 | 1 | 1016.4 |
| 20260905060621 | 57 | 328 | 3.5 | 6.1 | 0.00 | 0.00 | 0.00 | 1 | 1016.7 |
| 20260905055617 | 57 | 310 | 2.6 | 3.5 | 0.00 | 0.00 | 0.00 | 1 | 1016.4 |
| 20260905054634 | 57 | 322 | 3.5 | 4.3 | 0.00 | 0.00 | 0.00 | 1 | 1016.3 |
| 20260905053630 | 58 | 336 | 3.5 | 5.2 | 0.00 | 0.00 | 0.00 | 1 | 1016.5 |
| 20260905052646 | 59 | 331 | 3.5 | 5.2 | 0.00 | 0.00 | 0.00 | 1 | 1016.3 |
| 20260905051642 | 59 | 338 | 4.3 | 4.3 | 0.00 | 0.00 | 0.00 | 1 | 1016.4 |
| 20260905050618 | 59 | 329 | 3.5 | 4.3 | 0.00 | 0.00 | 0.00 | 1 | 1016.5 |
| 20260905045634 | 59 | 308 | 3.5 | 4.3 | 0.00 | 0.00 | 0.00 | 1 | 1016.5 |
| 20260905044631 | 60 | 338 | 7.8 | 8.7 | 0.00 | 0.00 | 0.00 | 1 | 1016.3 |
| 20260905043626 | 60 | 336 | 5.2 | 7.0 | 0.00 | 0.00 | 0.00 | 1 | 1016.1 |
| 20260905042622 | 61 | 339 | 4.3 | 5.2 | 0.00 | 0.00 | 0.00 | 1 | 1016.1 |
| 20260905041618 | 61 | 352 | 4.3 | 5.2 | 0.00 | 0.00 | 0.00 | 1 | 1016.2 |
| 20260905040635 | 62 | 356 | 3.5 | 3.5 | 0.00 | 0.00 | 0.00 | 1 | 1016.3 |
| 20260905035631 | 62 | 329 | 5.2 | 6.1 | 0.00 | 0.00 | 0.00 | 1 | 1016.2 |
| 20260905034627 | 64 | 339 | 5.2 | 7.8 | 0.00 | 0.00 | 0.00 | 1 | 1016.2 |
| 20260905033623 | 66 | 336 | 2.6 | 3.5 | 0.00 | 0.00 | 0.00 | 1 | 1016.0 |
| 20260905032619 | 66 | 315 | 1.7 | 2.6 | 0.00 | 0.00 | 0.00 | 1 | 1016.0 |
| 20260905031636 | 67 | 296 | 2.6 | 3.5 | 0.00 | 0.00 | 0.00 | 1 | 1015.9 |
| 20260905030631 | 66 | 294 | 2.6 | 2.6 | 0.00 | 0.00 | 0.00 | 1 | 1015.9 |
| 20260905025628 | 67 | 328 | 1.7 | 1.7 | 0.00 | 0.00 | 0.00 | 1 | 1015.6 |
| 20260905024644 | 66 | 324 | 1.7 | 2.6 | 0.00 | 0.00 | 0.00 | 1 | 1015.8 |
| 20260905023620 | 66 | 291 | 0.9 | 1.7 | 0.00 | 0.00 | 0.00 | 1 | 1015.4 |
| 20260905022636 | 67 | 292 | 0.9 | 1.7 | 0.00 | 0.00 | 0.00 | 1 | 1015.6 |
| 20260905021632 | 68 | 350 | 1.7 | 1.7 | 0.00 | 0.00 | 0.00 | 1 | 1015.7 |
| 20260905020628 | 69 | 0 | 0.9 | 1.7 | 0.00 | 0.00 | 0.00 | 1 | 1015.6 |
| 20260905015624 | 69 | 34 | 1.7 | 2.6 | 0.00 | 0.00 | 0.00 | 1 | 1015.6 |
| 20260905014621 | 70 | 39 | 1.7 | 3.5 | 0.00 | 0.00 | 0.00 | 1 | 1015.5 |
| 20260905013617 | 71 | 66 | 2.6 | 3.5 | 0.00 | 0.00 | 0.00 | 1 | 1015.4 |
| 20260905012633 | 71 | 57 | 0.9 | 1.7 | 0.00 | 0.00 | 0.00 | 1 | 1015.3 |
| 20260905011629 | 71 | 23 | 1.7 | 2.6 | 0.00 | 0.00 | 0.00 | 1 | 1015.3 |
| 20260905010625 | 71 | 51 | 3.5 | 4.3 | 0.00 | 0.00 | 0.00 | 1 | 1015.2 |
| 20260905005621 | 71 | 48 | 3.5 | 4.3 | 0.00 | 0.00 | 0.00 | 1 | 1015.2 |
| 20260905004617 | 71 | 50 | 4.3 | 5.2 | 0.00 | 0.00 | 0.00 | 1 | 1015.2 |
| 20260905003634 | 72 | 26 | 3.5 | 4.3 | 0.00 | 0.00 | 0.00 | 1 | 1015.2 |
| 20260905002630 | 71 | 49 | 0.0 | 1.7 | 0.00 | 0.00 | 0.00 | 1 | 1015.1 |
| 20260905001626 | 71 | 42 | 2.6 | 4.3 | 0.00 | 0.00 | 0.00 | 1 | 1015.0 |
| 20260905000622 | 71 | 64 | 1.7 | 3.5 | 0.00 | 0.00 | 0.00 | 1 | 1015.1 |
| 20260904235618 | 72 | 86 | 0.9 | 2.6 | 0.00 | 0.00 | 0.00 | 1 | 1015.1 |
| 20260904234634 | 73 | 125 | 1.7 | 5.2 | 0.00 | 0.00 | 0.00 | 1 | 1015.1 |
| 20260904233631 | 72 | 90 | 3.5 | 4.3 | 0.00 | 0.00 | 0.00 | 1 | 1015.0 |
| 20260904232631 | 73 | 88 | 1.7 | 5.2 | 0.00 | 0.00 | 0.00 | 1 | 1015.1 |
| 20260904231643 | 73 | 87 | 4.3 | 5.2 | 0.00 | 0.00 | 0.00 | 1 | 1015.2 |
| 20260904230620 | 73 | 50 | 3.5 | 7.8 | 0.00 | 0.00 | 0.00 | 1 | 1015.2 |
| 20260904225635 | 72 | 54 | 6.1 | 7.8 | 0.00 | 0.00 | 0.00 | 1 | 1015.2 |
| 20260904224631 | 72 | 34 | 2.6 | 3.5 | 0.00 | 0.00 | 0.00 | 1 | 1015.2 |
| 20260904223628 | 72 | 100 | 1.7 | 4.3 | 0.00 | 0.00 | 0.00 | 1 | 1015.2 |
| 20260904222623 | 71 | 40 | 4.3 | 7.0 | 0.00 | 0.00 | 0.00 | 1 | 1015.3 |
| 20260904221620 | 71 | 78 | 2.6 | 4.3 | 0.00 | 0.00 | 0.00 | 1 | 1015.3 |
| 20260904220656 | 71 | 58 | 3.5 | 4.3 | 0.00 | 0.00 | 0.00 | 1 | 1015.3 |
| 20260904215633 | 71 | 63 | 3.5 | 7.8 | 0.00 | 0.00 | 0.00 | 1 | 1015.3 |
| 20260904214628 | 71 | 16 | 4.3 | 6.1 | 0.00 | 0.00 | 0.00 | 1 | 1015.5 |
| 20260904213624 | 71 | 34 | 4.3 | 6.1 | 0.00 | 0.00 | 0.00 | 1 | 1015.4 |
| 20260904212641 | 71 | 50 | 3.5 | 5.2 | 0.00 | 0.00 | 0.00 | 1 | 1015.4 |
| 20260904211620 | 70 | 82 | 2.6 | 4.3 | 0.00 | 0.00 | 0.00 | 1 | 1015.4 |
| 20260904210632 | 70 | 53 | 6.1 | 9.6 | 0.00 | 0.00 | 0.00 | 1 | 1015.2 |
| 20260904205636 | 70 | 49 | 4.3 | 7.0 | 0.00 | 0.00 | 0.00 | 1 | 1015.3 |
| 20260904204625 | 69 | 326 | 3.5 | 5.2 | 0.00 | 0.00 | 0.00 | 1 | 1015.4 |
| 20260904203620 | 70 | 20 | 5.2 | 7.8 | 0.00 | 0.00 | 0.00 | 1 | 1015.4 |
| 20260904202616 | 69 | 44 | 2.6 | 4.3 | 0.00 | 0.00 | 0.00 | 1 | 1015.3 |
| 20260904201633 | 69 | 8 | 5.2 | 6.1 | 0.00 | 0.00 | 0.00 | 1 | 1015.4 |
| 20260904200629 | 69 | 59 | 4.3 | 5.2 | 0.00 | 0.00 | 0.00 | 1 | 1015.5 |
| 20260904195645 | 68 | 95 | 3.5 | 4.3 | 0.00 | 0.00 | 0.00 | 1 | 1015.5 |
| 20260904194622 | 68 | 179 | 2.6 | 2.6 | 0.00 | 0.00 | 0.00 | 1 | 1015.6 |
| 20260904193638 | 67 | 360 | 1.7 | 4.3 | 0.00 | 0.00 | 0.00 | 1 | 1015.6 |
| 20260904192634 | 68 | 67 | 3.5 | 5.2 | 0.00 | 0.00 | 0.00 | 1 | 1015.7 |
| 20260904191630 | 67 | 38 | 3.5 | 4.3 | 0.00 | 0.00 | 0.00 | 1 | 1015.8 |
| 20260904190726 | 66 | 50 | 3.5 | 5.2 | 0.00 | 0.00 | 0.00 | 1 | 1015.8 |
| 20260904185622 | 65 | 24 | 2.6 | 4.3 | 0.00 | 0.00 | 0.00 | 1 | 1016.1 |
| 20260904184619 | 64 | 156 | 1.7 | 2.6 | 0.00 | 0.00 | 0.00 | 1 | 1016.1 |
| 20260904183635 | 64 | 185 | 3.5 | 4.3 | 0.00 | 0.00 | 0.00 | 1 | 1016.3 |
| 20260904182631 | 65 | 158 | 3.5 | 6.1 | 0.00 | 0.00 | 0.00 | 1 | 1016.1 |
| 20260904181647 | 65 | 190 | 3.5 | 3.5 | 0.00 | 0.00 | 0.00 | 1 | 1016.0 |
| 20260904180624 | 63 | 37 | 0.9 | 2.6 | 0.00 | 0.00 | 0.00 | 1 | 1015.8 |
| 20260904175620 | 62 | 314 | 1.7 | 2.6 | 0.00 | 0.00 | 0.00 | 1 | 1015.9 |
| 20260904174621 | 63 | 58 | 1.7 | 3.5 | 0.00 | 0.00 | 0.00 | 1 | 1015.8 |
| 20260904173633 | 62 | 68 | 1.7 | 2.6 | 0.00 | 0.00 | 0.00 | 1 | 1015.8 |
| 20260904172628 | 63 | 53 | 4.3 | 5.2 | 0.00 | 0.00 | 0.00 | 1 | 1015.6 |
| 20260904171625 | 62 | 331 | 0.9 | 2.6 | 0.00 | 0.00 | 0.00 | 1 | 1015.6 |
| 20260904170621 | 62 | 12 | 0.9 | 2.6 | 0.00 | 0.00 | 0.00 | 1 | 1015.7 |
| 20260904165618 | 60 | 348 | 2.6 | 3.5 | 0.00 | 0.00 | 0.00 | 1 | 1015.7 |
| 20260904164634 | 59 | 1 | 1.7 | 2.6 | 0.00 | 0.00 | 0.00 | 1 | 1015.6 |
| 20260904163629 | 60 | 336 | 2.6 | 3.5 | 0.00 | 0.00 | 0.00 | 1 | 1015.6 |
| 20260904162645 | 58 | 43 | 1.7 | 1.7 | 0.00 | 0.00 | 0.00 | 1 | 1015.6 |
| 20260904161622 | 58 | 9 | 1.7 | 3.5 | 0.00 | 0.00 | 0.00 | 1 | 1015.6 |
| 20260904160618 | 58 | 337 | 1.7 | 3.5 | 0.00 | 0.00 | 0.00 | 1 | 1015.4 |
| 20260904155636 | 57 | 1 | 2.6 | 3.5 | 0.00 | 0.00 | 0.00 | 1 | 1015.4 |
| 20260904154630 | 57 | 12 | 3.5 | 3.5 | 0.00 | 0.00 | 0.00 | 1 | 1015.3 |
| 20260904153626 | 56 | 7 | 1.7 | 2.6 | 0.00 | 0.00 | 0.00 | 1 | 1015.3 |
| 20260904152622 | 56 | 5 | 2.6 | 3.5 | 0.00 | 0.00 | 0.00 | 1 | 1015.3 |
| 20260904151619 | 55 | 41 | 1.7 | 3.5 | 0.00 | 0.00 | 0.00 | 1 | 1015.1 |